Location: Slanting_Bridge
(35.6330°N, 80.9830°W)
Time: 19:51:33
(UTC-04:00)

Amateur Radio Satellites - All Passes

Search period start: 16 August 2017 19:21
Search period end: 17 August 2017 19:21
Location: Slanting_Bridge, 35.6330°N, 80.9830°W

Satellite Date Start Highest point End Downlink Frequencies (MHz)
Time Altitude Azimuth
CUTE 1.7 + AOD 2 16 Aug 19:22:30 19:26:16 33° 72° (ENE) 19:30:04 437.475
YUBILEINY 16 Aug 19:23:37 19:28:41 16° 294° (WNW) 19:33:48 435.215
SRMSAT 16 Aug 19:30:14 19:33:20 15° 189° (S) 19:36:28 437.500
STARS 16 Aug 19:30:26 19:34:31 40° 288° (WNW) 19:38:35 437.465
STRAND 1 16 Aug 19:45:53 19:49:04 17° 93° (E) 19:52:14 437.568
XW-2A 16 Aug 19:46:04 19:48:55 27° 73° (ENE) 19:51:47 145.665 - 145.685
AAUSAT CUBESAT 2 16 Aug 19:46:13 19:48:51 16° 68° (ENE) 19:51:28 437.432
HO-68 16 Aug 19:52:41 19:59:51 86° 75° (ENE) 20:07:02 435.675
KAITUO 1B 16 Aug 19:54:29 19:56:54 17° 266° (W) 19:59:21 145.475/437.950
LilacSat-2 16 Aug 20:00:09 20:00:56 10° 268° (W) 20:01:42 437.200
AO-73 16 Aug 20:02:57 20:04:41 12° 67° (ENE) 20:06:24 145.935
O/OREOS (USA 219) 16 Aug 20:09:51 20:12:33 15° 59° (ENE) 20:15:15 437.305
CUTE-I 16 Aug 20:17:16 20:20:37 17° 267° (W) 20:24:00 437.470
CUBEBUG 2 16 Aug 20:17:58 20:22:21 78° 77° (ENE) 20:26:37 437.445
SEEDS 16 Aug 20:19:26 20:23:36 82° 258° (WSW) 20:27:50 437.485
UWE-3 16 Aug 20:21:22 20:25:26 45° 75° (ENE) 20:29:27 435.000/436.395/437.385
ISS 16 Aug 20:22:28 20:25:21 29° 228° (SW) 20:28:12 437.550
nSIGHT-1 16 Aug 20:37:33 20:39:53 19° 231° (SW) 20:42:12 .
Oscar 11 16 Aug 20:51:24 20:55:18 35° 72° (ENE) 20:59:12 .
RS-15 16 Aug 20:58:21 21:09:50 46° 49° (NE) 21:20:39 29.354- 29.394
CUTE 1.7 + AOD 2 16 Aug 20:59:24 21:02:09 17° 266° (W) 21:04:54 437.475
ZACube-1 16 Aug 21:12:04 21:16:16 82° 260° (W) 21:20:25 437.345
AAUSAT CUBESAT 2 16 Aug 21:20:13 21:23:59 34° 263° (W) 21:27:48 437.432
XW-2A 16 Aug 21:20:27 21:21:41 12° 267° (W) 21:22:55 145.665 - 145.685
STRAND 1 16 Aug 21:23:34 21:28:27 48° 288° (WNW) 21:33:20 437.568
DELFI C3 16 Aug 21:35:38 21:38:52 24° 71° (ENE) 21:42:07 145.870
AO-73 16 Aug 21:36:29 21:40:30 45° 261° (W) 21:44:29 145.935
HO-68 16 Aug 21:44:51 21:48:16 14° 269° (W) 21:51:43 435.675
O/OREOS (USA 219) 16 Aug 21:47:51 21:52:11 46° 254° (WSW) 21:56:32 437.305
EO-88 16 Aug 21:54:44 21:57:34 22° 71° (ENE) 22:00:24 145.990 - 145.960
UWE-3 16 Aug 22:00:27 22:02:04 12° 267° (W) 22:03:42 435.000/436.395/437.385
TIGRISAT 16 Aug 22:15:29 22:17:12 12° 93° (E) 22:18:55 435.000
Max Valier Satellite 16 Aug 22:22:43 22:26:21 73° 76° (ENE) 22:29:59 145.860
Oscar 11 16 Aug 22:28:46 22:31:29 16° 266° (W) 22:34:15 .
FO-29 16 Aug 22:53:59 22:59:42 85° 103° (ESE) 23:04:56 435.910
DELFI C3 16 Aug 23:10:32 23:13:33 21° 265° (W) 23:16:35 145.870
RS-15 16 Aug 23:11:06 23:22:21 51° 251° (WSW) 23:33:02 29.354- 29.394
PRISM 16 Aug 23:11:07 23:15:03 41° 99° (E) 23:18:56 437.425
UNISAT 6 16 Aug 23:13:19 23:17:36 69° 102° (ESE) 23:21:56 437.425
EO-88 16 Aug 23:28:36 23:31:08 18° 265° (W) 23:33:42 145.990 - 145.960
SO-50 16 Aug 23:35:31 23:37:33 13° 108° (ESE) 23:39:35 436.795
PCSat 16 Aug 23:35:38 23:40:27 34° 109° (ESE) 23:45:18 145.827
LO-87 16 Aug 23:39:28 23:43:02 61° 76° (ENE) 23:46:35 145.935 - 145.965
TIGRISAT 16 Aug 23:49:59 23:54:06 47° 286° (WNW) 23:58:15 435.000
SPROUT 16 Aug 23:57:33 23:59:43 14° 67° (ENE) 00:01:54 437.525
ESTCUBE 1 17 Aug 00:19:43 00:24:11 72° 259° (WSW) 00:28:42 437.505/2401.250
AIST 2D 17 Aug 00:22:38 00:26:04 46° 100° (E) 00:29:28 435.315
M-CUBED/EXP-1 PRIME 17 Aug 00:35:50 00:40:08 49° 104° (ESE) 00:44:07 437.505
FO-29 17 Aug 00:42:34 00:43:47 11° 302° (WNW) 00:44:58 435.910
NANOSAT C BR1 17 Aug 00:46:42 00:50:23 30° 97° (E) 00:54:04 145.865
POLYITAN 1 17 Aug 00:46:43 00:50:33 34° 98° (E) 00:54:22 437.675
VELOX 1 17 Aug 00:47:23 00:51:36 43° 73° (ENE) 00:55:50 145.980
PRISM 17 Aug 00:47:51 00:49:55 14° 294° (WNW) 00:51:59 437.425
QB50P2 17 Aug 01:01:17 01:05:27 58° 101° (E) 01:09:34 145.880/145.840
EO-79 17 Aug 01:03:44 01:07:52 56° 101° (E) 01:11:59 145.935-145.965
DX 1 17 Aug 01:05:32 01:08:38 19° 68° (ENE) 01:11:44 434.975-435.025
SO-50 17 Aug 01:13:04 01:17:30 54° 302° (WNW) 01:21:56 436.795
50 SAT 17 Aug 01:14:38 01:17:33 27° 73° (ENE) 01:20:30 437.505
PCSat 17 Aug 01:19:07 01:23:49 29° 305° (NW) 01:28:32 145.827
SPROUT 17 Aug 01:31:07 01:35:12 44° 261° (W) 01:39:17 437.525
DUCHIFAT 1 17 Aug 01:39:32 01:43:40 67° 284° (WNW) 01:47:49 145.980
BUGSAT 1 17 Aug 01:58:33 02:02:26 47° 100° (E) 02:06:19 437.445
M-CUBED/EXP-1 PRIME 17 Aug 02:11:40 02:14:00 14° 300° (WNW) 02:16:15 437.505
NANOSAT C BR1 17 Aug 02:22:56 02:25:52 19° 291° (WNW) 02:28:47 145.865
POLYITAN 1 17 Aug 02:23:20 02:26:02 17° 292° (WNW) 02:28:45 437.675
VELOX 1 17 Aug 02:25:46 02:28:12 14° 267° (W) 02:30:38 145.980
UKube-1 17 Aug 02:28:10 02:32:28 72° 259° (WSW) 02:36:48 .
Oscar 19 17 Aug 02:29:11 02:34:08 43° 99° (E) 02:39:04 437.125/150
QB50P2 17 Aug 02:40:00 02:40:41 10° 295° (WNW) 02:41:22 145.880/145.840
DX 1 17 Aug 02:40:37 02:44:33 32° 262° (W) 02:48:30 434.975-435.025
EO-79 17 Aug 02:42:07 02:43:06 11° 295° (WNW) 02:44:04 145.935-145.965
50 SAT 17 Aug 02:48:43 02:50:15 13° 266° (W) 02:51:49 437.505
BEESAT 17 Aug 02:48:49 02:52:06 19° 66° (ENE) 02:55:22 436.000
Gurwin Techsat 1B 17 Aug 03:05:24 03:10:41 63° 101° (ESE) 03:15:56 435.225
MOZHAYETS 4 17 Aug 03:12:34 03:16:16 25° 70° (ENE) 03:19:58
AO-7 17 Aug 03:16:19 03:19:41 13° 91° (E) 03:23:01 .
ITUPSAT 1 17 Aug 03:18:44 03:23:06 37° 71° (ENE) 03:27:29 437.325
NO-84 17 Aug 03:26:45 03:29:34 52° 315° (NW) 03:32:21 435.350 FM
BUGSAT 1 17 Aug 03:36:07 03:37:20 11° 294° (WNW) 03:38:33 437.445
YUBILEINY 17 Aug 03:36:19 03:44:18 39° 75° (ENE) 03:52:13 435.215
ITAMSAT 1 17 Aug 03:41:07 03:43:10 12° 92° (E) 03:45:12 435.822/435.867
Oscar 19 17 Aug 04:09:21 04:13:07 20° 294° (WNW) 04:16:51 437.125/150
BEESAT 17 Aug 04:25:06 04:29:32 39° 261° (W) 04:34:00 436.000
Gurwin Techsat 1B 17 Aug 04:47:10 04:50:02 15° 297° (WNW) 04:52:54 435.225
MOZHAYETS 4 17 Aug 04:49:29 04:53:17 26° 264° (W) 04:57:06
CUBESAT XI-V 17 Aug 04:56:16 05:00:50 66° 75° (ENE) 05:05:29 437.345
ITUPSAT 1 17 Aug 04:57:40 05:01:00 19° 265° (W) 05:04:21 437.325
AO-7 17 Aug 05:05:04 05:13:27 82° 107° (ESE) 05:21:45 .
ITAMSAT 1 17 Aug 05:17:53 05:23:02 66° 286° (WNW) 05:28:07 435.822/435.867
KKS-1 17 Aug 05:32:08 05:36:35 78° 77° (ENE) 05:41:05 437.445
YUBILEINY 17 Aug 05:33:06 05:40:59 41° 273° (W) 05:48:52 435.215
BEESAT 3 17 Aug 06:18:34 06:22:15 37° 114° (ESE) 06:26:00 437.485
STARS 17 Aug 06:23:21 06:27:45 69° 258° (WSW) 06:32:09 437.465
BEESAT 2 17 Aug 06:24:19 06:25:59 12° 108° (ESE) 06:27:39 435.950
XW-2C 17 Aug 06:39:12 06:41:47 17° 94° (E) 06:44:22 145.795 - 145.815
DOVE 4 17 Aug 06:40:17 06:44:54 65° 101° (E) 06:49:11 437.250
AO-85 17 Aug 06:43:35 06:47:25 46° 116° (ESE) 06:51:10 145.980
XW-2F 17 Aug 06:54:32 06:57:45 25° 96° (E) 07:00:56 145.980 - 146.000
CUTE-I 17 Aug 06:55:40 07:00:05 26° 96° (E) 07:04:28 437.470
STRAND 1 17 Aug 06:59:03 07:02:32 19° 66° (ENE) 07:06:01 437.568
AO-7 17 Aug 06:59:31 07:05:14 21° 304° (NW) 07:10:57 .
HO-68 17 Aug 07:25:19 07:30:04 19° 93° (E) 07:34:48 435.675
KAITUO 1B 17 Aug 07:26:50 07:30:34 53° 100° (E) 07:34:17 145.475/437.950
LilacSat-2 17 Aug 07:32:39 07:36:32 84° 283° (WNW) 07:40:24 437.200
XW-2D 17 Aug 07:42:29 07:46:17 63° 284° (WNW) 07:50:04 145.860 - 145.880
XW-2B 17 Aug 07:53:29 07:57:10 46° 285° (WNW) 08:00:52 145.730 - 145.750
BEESAT 3 17 Aug 07:57:15 07:59:58 17° 310° (NW) 08:02:41 437.485
BEESAT 2 17 Aug 07:59:26 08:03:16 45° 303° (WNW) 08:07:10 435.950
NUDT-PHONESAT 17 Aug 08:06:24 08:09:57 42° 285° (WNW) 08:13:31 437.300
SEEDS 17 Aug 08:06:48 08:09:59 20° 95° (E) 08:13:08 437.485
CUBEBUG 2 17 Aug 08:12:17 08:15:17 19° 95° (E) 08:18:18 437.445
XW-2C 17 Aug 08:12:42 08:15:56 26° 288° (WNW) 08:19:10 145.795 - 145.815
UWE-3 17 Aug 08:15:45 08:17:01 11° 92° (E) 08:18:18 435.000/436.395/437.385
DOVE 4 17 Aug 08:20:57 08:21:52 11° 297° (WNW) 08:22:46 437.250
AO-85 17 Aug 08:26:01 08:28:01 13° 312° (NW) 08:30:00 145.980
PCSat 17 Aug 08:27:02 08:30:28 17° 49° (NE) 08:33:54 145.827
XW-2F 17 Aug 08:29:00 08:31:39 18° 290° (WNW) 08:34:18 145.980 - 146.000
CUTE-I 17 Aug 08:35:23 08:40:06 33° 291° (WNW) 08:44:48 437.470
STRAND 1 17 Aug 08:36:26 08:41:19 46° 260° (W) 08:46:14 437.568
XW-2A 17 Aug 08:42:31 08:45:47 44° 99° (E) 08:49:02 145.665 - 145.685
CUTE 1.7 + AOD 2 17 Aug 08:45:14 08:49:32 80° 285° (WNW) 08:53:49 437.475
FO-29 17 Aug 09:01:21 09:07:56 32° 67° (ENE) 09:14:08 435.910
ZACube-1 17 Aug 09:03:27 09:06:50 23° 96° (E) 09:10:17 437.345
AAUSAT CUBESAT 2 17 Aug 09:04:43 09:08:43 42° 99° (E) 09:12:40 437.432
HO-68 17 Aug 09:11:10 09:18:16 69° 289° (WNW) 09:25:22 435.675
AO-73 17 Aug 09:26:49 09:30:48 38° 98° (E) 09:34:51 145.935
SEEDS 17 Aug 09:41:59 09:45:37 28° 289° (WNW) 09:49:14 437.485
SO-50 17 Aug 09:46:49 09:51:19 56° 58° (ENE) 09:55:51 436.795
CUBEBUG 2 17 Aug 09:48:16 09:51:52 29° 288° (WNW) 09:55:32 437.445
UWE-3 17 Aug 09:49:36 09:53:41 49° 285° (WNW) 09:57:50 435.000/436.395/437.385
Tancredo 1 17 Aug 09:52:15 09:53:09 11° 128° (SE) 09:54:04 437.200
PRISM 17 Aug 09:57:54 10:01:00 21° 69° (ENE) 10:04:06 437.425
NO-84 17 Aug 10:02:10 10:04:33 19° 39° (NE) 10:07:04 435.350 FM
PCSat 17 Aug 10:08:58 10:14:22 68° 246° (WSW) 10:19:42 145.827
UNISAT 6 17 Aug 10:09:09 10:13:16 40° 73° (ENE) 10:17:19 437.425
Oscar 11 17 Aug 10:16:52 10:21:13 73° 283° (WNW) 10:25:32 .
O/OREOS (USA 219) 17 Aug 10:18:27 10:22:13 27° 103° (ESE) 10:26:00 437.305
ZACube-1 17 Aug 10:39:31 10:43:02 25° 289° (WNW) 10:46:34 437.345
AAUSAT CUBESAT 2 17 Aug 10:41:41 10:43:45 14° 293° (WNW) 10:45:49 437.432
TIGRISAT 17 Aug 10:45:11 10:49:35 82° 259° (W) 10:53:55 435.000
FO-29 17 Aug 10:45:11 10:52:39 49° 261° (W) 10:59:40 435.910
DELFI C3 17 Aug 10:49:09 10:53:05 58° 100° (E) 10:56:59 145.870
AIST 2D 17 Aug 10:56:23 10:57:15 11° 68° (ENE) 10:58:08 435.315
EO-88 17 Aug 10:58:51 11:02:22 42° 99° (E) 11:05:51 145.990 - 145.960
HO-68 17 Aug 11:02:48 11:04:42 11° 306° (NW) 11:06:37 435.675
AO-73 17 Aug 11:04:08 11:06:42 16° 292° (WNW) 11:09:17 145.935
RS-15 17 Aug 11:17:42 11:28:17 37° 105° (ESE) 11:39:02 29.354- 29.394
M-CUBED/EXP-1 PRIME 17 Aug 11:17:57 11:21:59 38° 67° (ENE) 11:26:15 437.505
ISS 17 Aug 11:23:44 11:26:42 32° 132° (SE) 11:29:39 437.550
Tancredo 1 17 Aug 11:25:15 11:28:04 44° 321° (NW) 11:30:53 437.200
Max Valier Satellite 17 Aug 11:29:02 11:32:38 50° 285° (WNW) 11:36:13 145.860
SO-50 17 Aug 11:29:09 11:31:17 13° 252° (WSW) 11:33:25 436.795
PRISM 17 Aug 11:32:33 11:36:04 27° 263° (W) 11:39:38 437.425
NANOSAT C BR1 17 Aug 11:36:48 11:39:21 16° 68° (ENE) 11:41:55 145.865
POLYITAN 1 17 Aug 11:37:06 11:39:58 18° 68° (ENE) 11:42:50 437.675
nSIGHT-1 17 Aug 11:37:13 11:40:23 49° 134° (SE) 11:43:33 .
NO-84 17 Aug 11:38:58 11:41:59 33° 232° (SW) 11:45:13 435.350 FM
UNISAT 6 17 Aug 11:47:39 11:50:05 15° 266° (W) 11:52:30 437.425
QB50P2 17 Aug 11:51:03 11:54:42 29° 71° (ENE) 11:58:20 145.880/145.840
EO-79 17 Aug 11:53:21 11:56:56 28° 71° (ENE) 12:00:31 145.935-145.965
O/OREOS (USA 219) 17 Aug 11:58:00 12:01:33 23° 298° (WNW) 12:05:09 437.305
ESTCUBE 1 17 Aug 12:15:21 12:19:20 29° 97° (E) 12:23:17 437.505/2401.250
AIST 2D 17 Aug 12:26:54 12:30:05 34° 262° (W) 12:33:17 435.315
DUCHIFAT 1 17 Aug 12:27:54 12:32:00 57° 75° (ENE) 12:36:06 145.980
EO-88 17 Aug 12:35:04 12:35:36 10° 293° (WNW) 12:36:07 145.990 - 145.960
LO-87 17 Aug 12:42:23 12:45:54 66° 283° (WNW) 12:49:23 145.935 - 145.965
BUGSAT 1 17 Aug 12:45:40 12:48:54 23° 70° (ENE) 12:52:07 437.445
M-CUBED/EXP-1 PRIME 17 Aug 12:53:34 12:56:30 18° 263° (W) 12:59:33 437.505
ISS 17 Aug 13:00:31 13:03:12 23° 327° (NNW) 13:05:53 437.550
NANOSAT C BR1 17 Aug 13:10:53 13:14:44 36° 262° (W) 13:18:37 145.865
POLYITAN 1 17 Aug 13:11:44 13:15:29 31° 262° (W) 13:19:15 437.675
nSIGHT-1 17 Aug 13:14:41 13:16:57 17° 330° (NNW) 13:19:14 .
SPROUT 17 Aug 13:19:32 13:23:27 36° 98° (E) 13:27:20 437.525
QB50P2 17 Aug 13:27:25 13:30:27 19° 265° (W) 13:33:30 145.880/145.840
RS-15 17 Aug 13:28:04 13:40:07 62° 305° (NW) 13:52:23 29.354- 29.394
EO-79 17 Aug 13:29:33 13:32:39 20° 265° (W) 13:35:46 145.935-145.965
Oscar 19 17 Aug 13:43:03 13:47:56 46° 72° (ENE) 13:52:52 437.125/150
JUGNU 17 Aug 13:48:20 13:51:45 16° 175° (S) 13:55:08 437.505
ESTCUBE 1 17 Aug 13:52:25 13:55:56 22° 291° (WNW) 13:59:27 437.505/2401.250
50 SAT 17 Aug 14:11:07 14:14:19 39° 99° (E) 14:17:30 437.505
AO-7 17 Aug 14:12:12 14:17:08 17° 53° (NE) 14:22:05 .
VELOX 1 17 Aug 14:16:17 14:20:39 60° 285° (WNW) 14:24:58 145.980
UKube-1 17 Aug 14:18:38 14:22:02 22° 96° (E) 14:25:25 .
BUGSAT 1 17 Aug 14:20:48 14:24:08 23° 264° (W) 14:27:26 437.445
Gurwin Techsat 1B 17 Aug 14:23:25 14:28:43 76° 75° (ENE) 14:34:03 435.225
DX 1 17 Aug 14:31:07 14:35:22 50° 100° (E) 14:39:35 434.975-435.025
BEESAT 3 17 Aug 14:40:05 14:40:59 11° 46° (NE) 14:41:53 437.485
ITAMSAT 1 17 Aug 14:55:58 14:59:01 16° 64° (ENE) 15:02:03 435.822/435.867
SPROUT 17 Aug 14:56:23 14:59:01 16° 292° (WNW) 15:01:39 437.525
AO-85 17 Aug 15:17:10 15:20:25 20° 52° (NE) 15:23:49 145.980
Oscar 19 17 Aug 15:24:05 15:27:27 18° 267° (W) 15:30:50 437.125/150
ITUPSAT 1 17 Aug 15:24:07 15:25:51 12° 92° (E) 15:27:35 437.325
JUGNU 17 Aug 15:36:36 15:39:59 16° 185° (S) 15:43:22 437.505
SRMSAT 17 Aug 15:40:52 15:43:32 13° 169° (S) 15:46:14 437.500
RS-15 17 Aug 15:47:15 15:55:53 21° 333° (NNW) 16:04:32 29.354- 29.394
UKube-1 17 Aug 15:54:23 15:57:59 26° 290° (WNW) 16:01:33 .
AO-7 17 Aug 16:00:18 16:08:40 85° 71° (ENE) 16:17:05 .
Gurwin Techsat 1B 17 Aug 16:07:51 16:09:08 11° 269° (W) 16:10:27 435.225
DX 1 17 Aug 16:09:10 16:11:04 13° 295° (WNW) 16:12:58 434.975-435.025
BEESAT 3 17 Aug 16:15:03 16:19:00 70° 244° (WSW) 16:22:53 437.485
BEESAT 2 17 Aug 16:19:39 16:23:27 38° 56° (NE) 16:27:11 435.950
BEESAT 17 Aug 16:27:36 16:32:20 64° 101° (ESE) 16:37:03 436.000
ITAMSAT 1 17 Aug 16:32:50 16:37:57 57° 259° (W) 16:43:05 435.822/435.867
YUBILEINY 17 Aug 16:33:06 16:41:25 49° 89° (E) 16:49:44 435.215
MOZHAYETS 4 17 Aug 16:46:16 16:50:54 88° 103° (ESE) 16:55:32
CUBESAT XI-V 17 Aug 16:56:28 17:00:00 21° 94° (E) 17:03:30 437.345
AO-85 17 Aug 16:56:46 17:00:53 39° 245° (WSW) 17:05:18 145.980
ITUPSAT 1 17 Aug 16:59:18 17:04:00 59° 286° (WNW) 17:08:41 437.325
KKS-1 17 Aug 17:27:00 17:30:02 18° 95° (E) 17:33:03 437.445
SRMSAT 17 Aug 17:28:17 17:31:56 17° 180° (S) 17:35:36 437.500
DOVE 4 17 Aug 17:41:23 17:46:28 49° 74° (ENE) 17:51:32 437.250
Tancredo 1 17 Aug 17:50:23 17:53:07 38° 37° (NE) 17:55:51 437.200
ISS 17 Aug 17:54:26 17:56:25 15° 28° (NNE) 17:58:25 437.550
HO-68 17 Aug 17:55:19 17:56:36 11° 54° (NE) 17:57:53 435.675
AO-7 17 Aug 17:57:10 18:02:12 17° 267° (W) 18:07:16 .
BEESAT 2 17 Aug 17:58:30 18:00:50 15° 251° (WSW) 18:03:09 435.950
KAITUO 1B 17 Aug 18:04:59 18:07:17 16° 69° (ENE) 18:09:37 145.475/437.950
nSIGHT-1 17 Aug 18:07:30 18:09:55 19° 31° (NNE) 18:12:18 .
BEESAT 17 Aug 18:07:40 18:09:32 12° 296° (WNW) 18:11:22 436.000
RS-15 17 Aug 18:09:06 18:15:31 15° 10° (N) 18:21:48 29.354- 29.394
LilacSat-2 17 Aug 18:11:46 18:15:02 28° 72° (ENE) 18:18:18 437.200
CUTE-I 17 Aug 18:14:27 18:19:12 33° 69° (ENE) 18:23:57 437.470
STARS 17 Aug 18:16:01 18:19:39 25° 97° (E) 18:23:14 437.465
XW-2D 17 Aug 18:20:40 18:24:06 36° 73° (ENE) 18:27:34 145.860 - 145.880
YUBILEINY 17 Aug 18:30:45 18:38:23 32° 287° (WNW) 18:46:02 435.215
XW-2B 17 Aug 18:31:24 18:35:00 48° 75° (ENE) 18:38:38 145.730 - 145.750
CUBESAT XI-V 17 Aug 18:33:09 18:37:23 33° 289° (WNW) 18:41:35 437.345
NUDT-PHONESAT 17 Aug 18:42:14 18:45:44 47° 75° (ENE) 18:49:17 437.300
XW-2C 17 Aug 18:50:07 18:53:50 89° 240° (WSW) 18:57:37 145.795 - 145.815
KKS-1 17 Aug 19:02:38 19:06:37 34° 289° (WNW) 19:10:36 437.445
XW-2F 17 Aug 19:05:35 19:09:14 57° 260° (W) 19:12:55 145.980 - 146.000
CUBEBUG 2 17 Aug 19:09:10 19:10:44 12° 66° (ENE) 19:12:16 437.445
